Weather History for Jerome, ID

Change the Weather History Date:

Friday, January 10, 2014

  Actual Average Record
Temperature  
Mean Temperature 37 °F 26 °F  
Max Temperature 44 °F 33 °F 55 °F (1953)
Min Temperature 29 °F 19 °F -18 °F (1949)
Degree Days  
Heating Degree Days 28 39  
Month to date heating degree days 353 390  
Since 1 July heating degree days 3137 3120  
Cooling Degree Days 0 0  
Month to date cooling degree days 0 0  
Year to date cooling degree days 0 0  
Moisture  
Dew Point 29 °F    
Average Humidity 75    
Maximum Humidity 92    
Minimum Humidity 57    
Precipitation  
Precipitation 0.00 in 0.05 in 0.32 in (1980)
Month to date precipitation 0.02 0.52  
Year to date precipitation 0.02 0.52  
Sea Level Pressure  
Sea Level Pressure 30.07 in    
Wind  
Wind Speed 13 mph (SW)    
Max Wind Speed 30 mph    
Max Gust Speed 40 mph    
Visibility 10 miles    
Events      
T = Trace of Precipitation, MM = Missing Value Source: NWS Daily Summary

Daily Weather History Graph

Daily Weather History Graph

Search for Another Location

Airport:

Trip Planner

Search our weather history database for the weather conditions in past years. The results will help you decide how hot, cold, wet, or windy it might be!

Date:

Astronomy

Jan. 10, 2014 Rise Set
Actual Time 8:07 AM MST 5:23 PM MST
Civil Twilight 7:35 AM MST 5:55 PM MST
Nautical Twilight 7:00 AM MST 6:30 PM MST
Astronomical Twilight 6:26 AM MST 7:04 PM MST
Moon 1:32 PM MST (1/10) 3:16 AM MST (1/10)
Length of Visible Light 10h 19m
Length of Day
9h 16m
Waxing Gibbous, 75% of the Moon is Illuminated
Jan 10
Waxing Gibbous
Jan 15
Full
Jan 23
Last Quarter
Jan 30
New
Feb 6
First Quarter

Hourly Weather History & Observations

Time (MST) Temp. Windchill Dew Point Humidity Pressure Visibility Wind Dir Wind Speed Gust Speed Precip Events Conditions
12:53 AM 30.9 °F 22.2 °F 28.0 °F 89% 30.03 in 10.0 mi SSW 10.4 mph - N/A   Overcast
1:53 AM 28.9 °F 25.2 °F 27.0 °F 92% 30.01 in 10.0 mi South 3.5 mph - N/A   Mostly Cloudy
2:53 AM 30.0 °F 23.2 °F 27.0 °F 88% 29.99 in 10.0 mi WSW 6.9 mph - N/A   Overcast
3:53 AM 30.0 °F 22.4 °F 27.0 °F 88% 29.99 in 10.0 mi West 8.1 mph - N/A   Overcast
4:53 AM 32.0 °F 25.6 °F 28.0 °F 85% 30.00 in 10.0 mi WSW 6.9 mph - N/A   Overcast
5:53 AM 34.0 °F 23.8 °F 27.0 °F 75% 29.98 in 10.0 mi WSW 16.1 mph - N/A   Scattered Clouds
6:53 AM 33.1 °F 23.0 °F 28.0 °F 82% 30.00 in 10.0 mi WSW 15.0 mph - N/A   Clear
7:53 AM 33.1 °F 22.6 °F 27.0 °F 78% 30.01 in 10.0 mi WSW 16.1 mph - N/A   Clear
8:53 AM 34.0 °F 24.6 °F 27.0 °F 75% 30.04 in 10.0 mi WSW 13.8 mph - N/A   Clear
9:53 AM 36.0 °F 26.3 °F 28.9 °F 76% 30.07 in 10.0 mi WSW 16.1 mph - N/A   Clear
10:53 AM 39.0 °F 29.3 °F 30.0 °F 70% 30.06 in 10.0 mi WSW 19.6 mph - N/A   Clear
11:53 AM 39.9 °F 30.5 °F 30.0 °F 68% 30.07 in 10.0 mi WSW 19.6 mph 31.1 mph N/A   Clear
12:53 PM 42.1 °F 33.3 °F 30.9 °F 65% 30.06 in 10.0 mi WSW 19.6 mph 29.9 mph N/A   Clear
1:53 PM 43.0 °F 33.3 °F 30.0 °F 60% 30.07 in 10.0 mi WSW 25.3 mph 34.5 mph N/A   Partly Cloudy
2:53 PM 43.0 °F 34.5 °F 28.9 °F 58% 30.07 in 10.0 mi WSW 19.6 mph 28.8 mph N/A   Mostly Cloudy
3:53 PM 41.0 °F 32.2 °F 28.0 °F 60% 30.09 in 10.0 mi West 18.4 mph 27.6 mph N/A   Mostly Cloudy
4:53 PM 39.0 °F 29.0 °F 28.0 °F 65% 30.11 in 10.0 mi WSW 20.7 mph 26.5 mph N/A   Overcast
5:53 PM 37.0 °F 29.3 °F 30.0 °F 76% 30.14 in 10.0 mi WSW 11.5 mph - N/A   Overcast
6:53 PM 36.0 °F 26.7 °F 30.0 °F 79% 30.14 in 10.0 mi SW 15.0 mph - N/A   Overcast
7:53 PM 36.0 °F 28.5 °F 30.9 °F 82% 30.16 in 10.0 mi SW 10.4 mph - N/A   Overcast
8:53 PM 36.0 °F 29.0 °F 30.0 °F 79% 30.17 in 10.0 mi SSW 9.2 mph - N/A   Overcast
9:53 PM 36.0 °F 29.6 °F 30.0 °F 79% 30.17 in 10.0 mi SW 8.1 mph - N/A   Overcast
10:53 PM 37.0 °F 32.4 °F 30.0 °F 76% 30.17 in 10.0 mi South 5.8 mph - N/A   Overcast
11:53 PM 37.0 °F 31.6 °F 30.0 °F 76% 30.14 in 10.0 mi SE 6.9 mph - N/A   Overcast